Weather History for Algona, IA

Change the Weather History Date:

Monday, October 8, 2012

  Actual Average Record
Temperature  
Mean Temperature 52 °F -  
Max Temperature 68 °F 63 °F 89 °F (2010)
Min Temperature 35 °F 41 °F 19 °F (2000)
Degree Days  
Heating Degree Days 14    
Growing Degree Days 2 (Base 50)    
Moisture  
Dew Point 31 °F    
Average Humidity 51    
Maximum Humidity 94    
Minimum Humidity 21    
Precipitation  
Precipitation 0.12 in - - ()
Sea Level Pressure  
Sea Level Pressure 29.80 in    
Wind  
Wind Speed 16 mph (SSW)    
Max Wind Speed 31 mph    
Max Gust Speed 44 mph    
Visibility 10 miles    
Events Rain    
Averages and records for this station are not official NWS values.
T = Trace of Precipitation, MM = Missing Value Source: NWS Daily Summary

Daily Weather History Graph

Daily Weather History Graph

Search for Another Location

Airport:

Trip Planner

Search our weather history database for the weather conditions in past years. The results will help you decide how hot, cold, wet, or windy it might be!

Date:

Astronomy

Oct. 08, 2012 Rise Set
Actual Time 7:23 AM CDT 6:45 PM CDT
Civil Twilight 6:54 AM CDT 7:13 PM CDT
Nautical Twilight 6:21 AM CDT 7:46 PM CDT
Astronomical Twilight 5:48 AM CDT 8:19 PM CDT
Moon No Moon Rise 2:44 PM CDT (10/8)
Length of Visible Light 12h 18m
Length of Day
11h 22m
Last Quarter, 46% of the Moon is Illuminated
Oct 8
Last Quarter
Oct 15
New
Oct 21
First Quarter
Oct 29
Full
Nov 6
Last Quarter

Hourly Weather History & Observations

Time (CDT) Temp. Windchill Dew Point Humidity Pressure Visibility Wind Dir Wind Speed Gust Speed Precip Events Conditions
12:15 AM 37.4 °F 29.8 °F 23.0 °F 56% 29.94 in 10.0 mi South 11.5 mph - N/A   Clear
12:35 AM 35.6 °F 27.5 °F 23.0 °F 60% 29.93 in 10.0 mi South 11.5 mph - N/A   Clear
12:55 AM 35.6 °F 27.1 °F 23.0 °F 60% 29.93 in 10.0 mi South 12.7 mph - N/A   Clear
1:15 AM 35.6 °F 26.6 °F 23.0 °F 60% 29.92 in 10.0 mi South 13.8 mph - N/A   Clear
1:35 AM 35.6 °F 27.1 °F 23.0 °F 60% 29.92 in 10.0 mi South 12.7 mph - N/A   Clear
1:55 AM 35.6 °F 26.6 °F 24.8 °F 65% 29.91 in 10.0 mi South 13.8 mph - N/A   Clear
2:15 AM 37.4 °F 28.9 °F 24.8 °F 60% 29.91 in 10.0 mi South 13.8 mph - N/A   Clear
2:35 AM 35.6 °F 27.1 °F 24.8 °F 65% 29.90 in 10.0 mi South 12.7 mph - N/A   Clear
2:55 AM 35.6 °F 27.1 °F 24.8 °F 65% 29.90 in 10.0 mi South 12.7 mph - N/A   Clear
3:15 AM 35.6 °F 27.1 °F 26.6 °F 70% 29.89 in 10.0 mi SSW 12.7 mph - N/A   Clear
3:35 AM 37.4 °F 29.8 °F 26.6 °F 65% 29.89 in 10.0 mi SSW 11.5 mph - N/A   Clear
3:55 AM 37.4 °F 29.8 °F 26.6 °F 65% 29.88 in 10.0 mi SSW 11.5 mph - N/A   Clear
4:15 AM 37.4 °F 29.8 °F 28.4 °F 70% 29.88 in 10.0 mi SSW 11.5 mph - N/A   Clear
4:35 AM 37.4 °F 29.3 °F 28.4 °F 70% 29.87 in 10.0 mi SSW 12.7 mph - N/A   Clear
4:55 AM 37.4 °F 29.8 °F 28.4 °F 70% 29.87 in 10.0 mi SSW 11.5 mph - N/A   Clear
5:15 AM 37.4 °F 29.3 °F 28.4 °F 70% 29.87 in 10.0 mi SSW 12.7 mph - N/A   Partly Cloudy
5:35 AM 39.2 °F 31.2 °F 30.2 °F 70% 29.87 in 10.0 mi SSW 13.8 mph - N/A   Clear
5:55 AM 39.2 °F 31.2 °F 30.2 °F 70% 29.86 in 10.0 mi SSW 13.8 mph - N/A   Mostly Cloudy
6:15 AM 39.2 °F 30.8 °F 30.2 °F 70% 29.86 in 10.0 mi SSW 15.0 mph - N/A   Mostly Cloudy
6:35 AM 39.2 °F 30.5 °F 30.2 °F 70% 29.86 in 10.0 mi SSW 16.1 mph - N/A   Overcast
6:55 AM 39.2 °F 31.2 °F 30.2 °F 70% 29.86 in 10.0 mi SSW 13.8 mph - N/A   Overcast
7:15 AM 39.2 °F 31.2 °F 32.0 °F 75% 29.86 in 10.0 mi SSW 13.8 mph - N/A   Overcast
7:35 AM 39.2 °F 31.2 °F 32.0 °F 75% 29.85 in 10.0 mi South 13.8 mph - N/A   Overcast
7:55 AM 39.2 °F 30.8 °F 32.0 °F 75% 29.85 in 10.0 mi SSW 15.0 mph - N/A   Mostly Cloudy
8:15 AM 41.0 °F 32.8 °F 32.0 °F 70% 29.84 in 10.0 mi South 16.1 mph - N/A   Overcast
8:35 AM 42.8 °F 34.5 °F 32.0 °F 66% 29.84 in 10.0 mi SSW 18.4 mph - N/A   Mostly Cloudy
8:55 AM 42.8 °F 34.8 °F 32.0 °F 66% 29.84 in 10.0 mi SSW 17.3 mph 24.2 mph N/A   Mostly Cloudy
9:15 AM 44.6 °F 36.4 °F 32.0 °F 61% 29.83 in 10.0 mi SSW 20.7 mph - N/A   Overcast
9:35 AM 46.4 °F 39.0 °F 33.8 °F 62% 29.83 in 10.0 mi SSW 19.6 mph 26.5 mph N/A   Overcast
9:55 AM 46.4 °F 39.2 °F 33.8 °F 62% 29.83 in 10.0 mi SSW 18.4 mph 25.3 mph N/A   Mostly Cloudy
10:15 AM 48.2 °F - 33.8 °F 58% 29.83 in 10.0 mi SSW 19.6 mph - N/A   Mostly Cloudy
10:35 AM 50.0 °F - 33.8 °F 54% 29.82 in 10.0 mi SSW 19.6 mph - N/A   Mostly Cloudy
10:55 AM 51.8 °F - 33.8 °F 50% 29.82 in 10.0 mi SSW 20.7 mph - N/A   Scattered Clouds
11:15 AM 53.6 °F - 33.8 °F 47% 29.81 in 10.0 mi SSW 18.4 mph - N/A   Clear
11:35 AM 57.2 °F - 33.8 °F 41% 29.80 in 10.0 mi South 20.7 mph - N/A   Clear
11:55 AM 57.2 °F - 32.0 °F 38% 29.80 in 10.0 mi SSW 20.7 mph - N/A   Partly Cloudy
12:15 PM 59.0 °F - 32.0 °F 36% 29.79 in 10.0 mi SSW 21.9 mph - N/A   Partly Cloudy
12:35 PM 62.6 °F - 32.0 °F 32% 29.77 in 10.0 mi SSW 26.5 mph 32.2 mph N/A   Clear
12:55 PM 64.4 °F - 32.0 °F 30% 29.76 in 10.0 mi SSW 26.5 mph - N/A   Clear
1:15 PM 66.2 °F - 30.2 °F 26% 29.75 in 10.0 mi SW 24.2 mph 35.7 mph N/A   Partly Cloudy
1:35 PM 66.2 °F - 28.4 °F 24% 29.73 in 10.0 mi SSW 28.8 mph 40.3 mph N/A   Partly Cloudy
1:55 PM 66.2 °F - 26.6 °F 23% 29.72 in 10.0 mi SW 28.8 mph 39.1 mph N/A   Clear
2:15 PM 66.2 °F - 28.4 °F 24% 29.71 in 10.0 mi SW 27.6 mph 40.3 mph N/A   Scattered Clouds
2:35 PM 68.0 °F - 26.6 °F 21% 29.70 in 10.0 mi SW 28.8 mph 36.8 mph N/A   Scattered Clouds
2:55 PM 66.2 °F - 26.6 °F 23% 29.70 in 10.0 mi SSW 29.9 mph 39.1 mph N/A   Partly Cloudy
3:15 PM 68.0 °F - 26.6 °F 21% 29.69 in 10.0 mi SSW 29.9 mph 40.3 mph N/A   Partly Cloudy
3:35 PM 68.0 °F - 26.6 °F 21% 29.70 in 10.0 mi SW 26.5 mph 39.1 mph N/A   Partly Cloudy
3:55 PM 68.0 °F - 26.6 °F 21% 29.69 in 10.0 mi SW 31.1 mph 41.4 mph N/A   Clear
4:15 PM 68.0 °F - 26.6 °F 21% 29.69 in 10.0 mi SSW 31.1 mph 43.7 mph N/A   Clear
4:35 PM 68.0 °F - 26.6 °F 21% 29.69 in 10.0 mi SW 26.5 mph 35.7 mph N/A   Clear
4:55 PM 68.0 °F - 28.4 °F 23% 29.69 in 10.0 mi SSW 23.0 mph 35.7 mph N/A   Mostly Cloudy
5:15 PM 68.0 °F - 28.4 °F 23% 29.69 in 10.0 mi SSW 28.8 mph 38.0 mph N/A   Scattered Clouds
5:35 PM 66.2 °F - 28.4 °F 24% 29.69 in 10.0 mi SSW 27.6 mph 33.4 mph N/A   Clear
5:55 PM 66.2 °F - 28.4 °F 24% 29.69 in 10.0 mi SSW 23.0 mph 31.1 mph N/A   Clear
6:15 PM 64.4 °F - 30.2 °F 28% 29.70 in 10.0 mi SSW 18.4 mph - N/A   Clear
6:35 PM 64.4 °F - 30.2 °F 28% 29.70 in 10.0 mi SSW 15.0 mph 23.0 mph N/A   Clear
6:55 PM 62.6 °F - 30.2 °F 30% 29.70 in 10.0 mi SSW 17.3 mph - N/A   Scattered Clouds
7:15 PM 62.6 °F - 30.2 °F 30% 29.71 in 10.0 mi SSW 12.7 mph - N/A   Scattered Clouds
7:35 PM 60.8 °F - 30.2 °F 31% 29.72 in 10.0 mi SSW 13.8 mph 20.7 mph N/A   Mostly Cloudy
7:55 PM 60.8 °F - 30.2 °F 31% 29.73 in 10.0 mi SW 11.5 mph - N/A   Overcast
8:35 PM 59.0 °F - 32.0 °F 36% 29.75 in 10.0 mi SW 10.4 mph - N/A   Light Drizzle
8:55 PM 60.8 °F - 30.2 °F 31% 29.76 in 10.0 mi SW 12.7 mph 21.9 mph N/A   Overcast
9:15 PM 57.2 °F - 41.0 °F 55% 29.78 in 6.0 mi West 15.0 mph - N/A Rain Light Rain
9:35 PM 55.4 °F - 46.4 °F 72% 29.79 in 10.0 mi West 10.4 mph - N/A   Overcast
9:55 PM 55.4 °F - 48.2 °F 77% 29.80 in 7.0 mi WNW 9.2 mph - N/A   Light Drizzle
10:15 PM 55.4 °F - 48.2 °F 77% 29.82 in 8.0 mi WNW 8.1 mph - N/A   Light Drizzle
10:55 PM 53.6 °F - 48.2 °F 82% 29.82 in 4.0 mi NW 6.9 mph - 0.05 in Rain Light Rain
11:15 PM 51.8 °F - 48.2 °F 88% 29.82 in 4.0 mi NNW 8.1 mph - N/A Rain Rain
11:35 PM 51.8 °F - 50.0 °F 94% 29.82 in 4.0 mi Calm Calm - N/A Rain Light Rain
11:55 PM 51.8 °F - 50.0 °F 94% 29.82 in 6.0 mi WSW 3.5 mph - 0.07 in   Light Drizzle